星链-5449 (STARLINK-5449 )

导读 | 豆包AI

STARLINK-5449是美国太空探索技术公司(SpaceX)星链(Starlink)互联网卫星星座的一员,于2022年12月17日由猎鹰9号火箭发射,属于星链Group 4-16批次,质量约297千克,运行在近地轨道,当前飞行高度约548千米,飞行速度约7.59千米每秒,旨在为全球尤其是偏远地区提供高速宽带互联网服务。

Basic Information
目录编号:
54780
目录名称:
STARLINK-5449
国际标识:
2022-175Y
轨道中心:
EARTH
卫星名称:
星链-5449
卫星全名:
星链-5449 (STARLINK-5449 )
卫星状态:
在轨 (已飞行1184 天)
发射日期:
2022-12-17 UTC
国别 :
美国 (US)
星等 :
--
Orbit Information
数据来源 国际轨道数据 AOE轨道数据
星历时间 2026-03-15T09:46:06+0800
11小时前
查看轨道信息
2026-03-12T16:00:00+0800
3天前
查看轨道信息
半长轴 6917.865km 6917.826km
偏心率 0.0001615 0.000123
轨道倾角 53.220° 53.215°
近地点辐角 88.722° 60.831°
升交点赤经 4.851° 17.154°
平近点角 271.395° 166.097°
近地点 538.61km 538.838km
远地点 540.846km 540.54km
周期 95.437分钟 95.436分钟
每日圈数 15.088452 15.088581
Detailed Information
固有亮度:
5
最大亮度:
2.5
卫星平台:
Starlink v1.5
覆盖范围:
全球
运营商:
太空探索技术公司
运营商所在国:
美国
制造商(研发单位):
太空探索技术公司
制造商所在国:
美国
使用方式:
暂无
Satellite Introduction
星链(Starlink)计划是由太空探索技术公司(SpaceX)提出的一个巨型低轨卫星互联网星座项目,计划在2019年至2024年间在太空搭建由约1.2万颗卫星组成的“星链”网络,其中1584颗将部署在地球上空550千米处的近地轨道,并从2020年开始工作。该卫星仍在工作。
2D Orbit Map
3D Orbit Map
Orbit Altitude Analysis Chart
Orbit Inclination Analysis Chart
Orbit Comprehensive Analysis Chart
View Comprehensive Chart